SCP
0 0 0 0 0 0 0 0 0 0 0 0 0 0 0 0 0 0 -0 -0 -0 0 0 0 -0 -0 -0 0 0 0 0 0 0 0 0 0 0 0
0 -0 -0 0 0 0 0 0 0 0 0 0 0 0 0 0 0 0 0 0 -0 -0 -0 0 0 0 0 0 0 0 0 0 0 0 0 0 0 0
-0 -0 -0 -0 0 0 0 0 0 0 0 0 -0 -0 -0 0 0 0 0 0 0 -0 -0 0 0 0 0 0 0 0 0 0 0 0 0 0 0 0
0 -0 -0 0 -0 -0 -0 -0 0 0 0 0 0 0 -0 -0 -0 -0 0 0 0 0 -0 -0 0 0 0 0 0 0 0 0 0 0 0 0 0 0
0 -0 -0 -0 -0 -0 -0 -0 -0 -0 0 0 0 0 0 0 -0 -0 -0 -0 -0 -0 -0 -0 -0 0 0 0 0 0 0 0 0 0 0 0 0 0
-0 -0 -0 -0 -0 -0 -0 -0 -0 -0 -0 0 0 0 0 0 0 0 0 -0 -0 -0 -0 -0 0 -0 -0 0 0 0 0 0 0 0 0 0 0 0
-0 -0 -0 -0 -0 0 0 0 0 -0 -0 0 0 0 0 -0 -0 0 -0 -0 -0 0 0 0 0 0 0 0 0 0 0 0 0 0 0 0 0 0
0 -0 -0 0 0 0 0 0 0 0 0 0 0 0 -0 -0 -0 -0 0 0 0 0 0 0 0 0 0 0 0 0 0 0 0 0 0 0 0 0
0 0 0 0 0 0 0 0 0 0 0 0 0 -0 0 -0 -0 -0 -0 0 0 0 0 -0 0 0 0 0 0 0 0 0 0 0 0 0 0 0
0 0 0 0 0 0 0 0 0 0 0 0 0 0 0 0 0 0 0 0 0 0 0 0 0 0 0 0 0 0 0 0 0 0 0 0 0 0
1 1 1 1 1 1 1 1 1 0 0 0 0 0 0 0 0 0 0 0 0 0 0 0 0 0 0 0 0 0 0 0 0 0 0 0 0 0
2 1 1 1 1 0 1 1 1 1 1 1 1 0 0 0 0 0 0 0 0 0 1 0 0 1 0 1 0 0 1 0 0 0 0 0 0 0
5 4 4 1 0 0 1 2 1 1 1 1 1 1 1 1 1 0 0 1 1 0 1 1 0 0 1 1 0 0 1 0 0 0 0 0 0 0
2 3 1 0 0 0 0 0 0 1 2 1 2 1 1 1 1 1 1 0 1 1 1 0 0 1 1 0 0 0 0 0 0 0 0 0 0 0
2 1 0 0 0 0 0 0 0 0 1 1 1 1 1 1 1 1 1 1 1 1 0 0 0 0 0 0 0 0 0 0 0 0 0 0 0 0
0 0 0 0 0 0 0 0 0 0 1 1 1 1 1 1 1 0 0 0 0 0 0 0 0 0 0 0 0 0 0 0 0 0 0 0 0 0
0 0 0 0 0 0 0 0 0 0 0 1 0 0 1 0 0 0 0 0 0 0 0 0 0 0 0 0 0 0 0 0 0 0 0 0 0 0
0 -0 0 0 0 0 0 0 0 0 0 0 0 0 0 0 0 0 0 0 0 0 0 0 0 0 0 0 0 0 0 0 0 0 0 0 0 0
0 -0 0 0 0 0 0 0 0 0 0 0 0 0 0 0 0 0 0 0 0 0 0 0 0 0 0 0 0 0 0 0 0 0 0 0 0 0
0 1 1 0 0 0 0 0 0 0 0 0 0 0 0 0 0 0 0 0 0 0 0 0 0 0 0 0 0 0 0 0 0 0 0 0 0 0
1 1 1 0 0 0 0 0 0 0 0 0 0 0 0 0 0 0 0 0 0 0 0 0 0 0 0 0 0 0 0 0 0 0 0 0 0 0
1 0 0 0 0 0 0 0 0 0 0 0 0 0 0 0 0 0 0 0 0 0 0 0 0 0 0 0 0 0 0 0 0 0 0 0 0 0
0 0 0 0 0 0 0 0 0 0 0 0 0 0 0 0 0 0 0 0 0 0 0 0 0 0 0 0 0 0 0 0 0 0 0 0 0 0
Wind_Speed_500mb
43 42 42 39 39 36 33 32 28 34 27 33 22 12 19 28 29 27 33 38 42 56 56 54 51 57 60 62 59 58 56 54 55 56 57 55 54 53
36 37 39 38 37 33 32 29 27 30 36 32 29 21 14 10 20 22 26 34 37 41 50 58 65 63 58 56 59 62 60 58 59 57 56 59 61 61
33 33 34 31 32 31 29 27 27 27 32 33 20 11 7 15 14 15 14 21 29 36 41 45 53 58 58 61 60 60 64 62 60 60 60 57 56 61
28 32 33 32 33 30 29 25 25 23 26 25 21 16 12 12 18 12 21 20 24 32 38 41 48 50 53 57 63 68 73 73 71 68 66 63 62 63
48 43 38 38 33 30 25 20 21 21 22 23 21 21 16 15 13 12 11 13 19 19 29 31 35 40 44 48 54 62 66 71 75 76 75 73 71 70
44 44 42 42 34 29 27 22 22 25 23 24 22 21 18 16 17 16 13 20 22 23 23 28 34 38 44 45 44 48 54 56 58 64 70 77 80 79
43 43 42 39 31 29 30 23 26 30 29 26 23 18 18 16 18 17 19 21 23 23 23 24 26 29 32 37 41 42 47 51 53 57 61 63 63 70
51 44 39 34 32 32 31 27 31 35 32 29 27 25 22 22 21 19 17 16 15 17 15 15 26 26 26 30 32 34 36 39 47 52 58 66 65 67
39 37 33 32 28 32 29 32 34 32 33 29 31 27 22 21 22 26 25 21 20 23 26 25 23 21 22 24 25 23 26 31 34 38 41 44 55 62
34 33 34 30 29 27 28 30 31 31 32 32 31 28 28 25 30 28 28 30 26 25 28 29 20 22 22 25 25 27 28 29 28 29 32 34 37 42
34 34 37 35 32 29 31 31 28 29 28 29 28 27 27 26 27 29 29 30 27 22 27 27 22 24 23 26 25 26 22 18 25 25 26 26 28 32
37 33 29 28 31 36 36 34 36 32 29 33 33 32 31 33 34 35 33 33 33 32 26 24 19 25 17 20 10 20 28 35 32 32 31 32 34 35
44 35 33 30 26 38 47 50 48 40 37 32 34 34 34 34 37 37 38 39 38 34 34 36 27 27 24 27 24 25 28 28 29 30 37 38 40 42
58 51 44 34 35 42 46 55 51 47 45 44 36 36 33 30 35 39 39 39 40 43 44 42 42 34 33 33 29 25 23 24 23 25 25 28 33 39
59 47 57 65 64 80 63 55 52 44 40 37 35 33 30 31 34 34 35 35 35 36 37 38 37 34 37 34 34 27 30 23 27 20 21 23 24 28
56 61 73 64 44 36 35 32 35 31 26 28 30 35 37 34 29 26 30 37 33 29 31 30 28 28 30 34 35 30 27 30 26 22 32 27 27 27
55 52 60 60 42 50 51 39 33 24 25 26 22 18 28 28 27 28 28 28 24 20 15 20 25 24 26 26 26 24 24 14 16 22 27 22 19 19
62 58 59 56 56 48 47 42 49 41 33 27 17 20 20 18 17 18 19 15 8 6 5 11 12 8 9 15 14 11 12 16 18 22 24 25 24 22
68 59 36 28 37 43 41 42 38 31 27 24 24 16 23 22 17 12 10 7 8 8 10 14 14 17 12 16 13 18 15 19 22 23 26 30 34 33
33 31 28 26 36 33 34 35 33 29 28 22 14 17 12 10 7 6 6 6 6 7 7 13 14 16 13 16 20 22 35 29 32 34 34 35 43 43
33 34 31 35 36 33 34 36 34 32 24 17 12 12 9 8 10 8 11 12 11 13 11 12 25 28 29 30 25 25 28 43 42 44 41 35 34 34
36 37 34 34 36 34 37 33 29 26 18 18 18 17 15 15 14 13 14 12 18 22 26 28 32 30 24 21 25 27 28 27 33 36 33 33 25 28
42 32 33 33 38 39 33 30 26 23 24 22 22 22 18 16 17 19 20 21 22 20 23 20 21 24 23 22 29 26 28 28 27 26 23 35 41 37
Wind_Direction_500mb
280 283 285 292 294 295 285 284 278 279 297 315 322 282 259 238 231 238 239 239 231 231 231 232 235 239 245 248 239 242 245 246 252 257 259 258 258 257
282 286 282 283 290 292 290 284 278 280 282 296 313 289 260 237 232 238 243 234 233 233 233 237 240 242 246 238 243 243 244 249 251 252 257 256 257 259
284 288 290 277 286 293 292 285 281 283 284 295 299 302 305 238 244 257 245 245 236 236 238 239 238 239 241 241 243 244 241 249 253 251 253 256 259 259
284 283 289 272 271 280 286 285 289 279 282 284 292 278 265 263 266 265 263 261 248 241 247 248 238 239 241 243 245 245 247 250 253 252 251 253 258 260
276 279 278 265 267 273 268 271 284 278 283 278 272 281 278 258 264 267 259 275 270 262 250 249 242 242 243 246 248 246 246 248 250 251 251 255 258 258
265 261 265 261 261 264 256 255 266 260 272 272 272 271 258 259 267 288 297 300 289 276 267 263 258 256 253 251 254 254 251 252 250 249 251 253 254 256
260 255 260 262 262 261 260 264 256 259 263 259 253 251 239 250 256 262 272 286 301 292 278 273 268 260 258 257 259 258 256 255 255 257 258 259 261 260
258 263 264 259 256 259 261 266 264 268 262 253 249 243 239 244 256 263 268 280 294 301 277 276 286 280 274 270 274 270 267 265 261 262 262 258 258 257
263 263 254 262 266 266 266 271 265 265 259 262 257 250 247 248 249 261 269 275 273 279 291 290 290 292 281 276 279 275 270 267 268 267 269 267 260 259
259 254 249 255 268 265 266 271 269 267 261 260 267 261 258 253 255 256 261 270 273 284 291 280 283 291 288 287 282 277 281 280 275 272 273 274 272 269
253 245 239 245 263 268 269 265 260 262 265 261 254 260 257 257 258 258 260 267 274 276 272 279 278 289 287 291 289 276 264 284 282 281 281 277 274 274
251 251 251 263 266 269 268 270 265 262 254 248 246 254 260 260 258 263 266 260 264 277 264 264 266 283 291 282 267 290 271 287 282 283 276 270 272 278
231 229 222 223 254 274 275 271 266 271 261 252 253 255 262 265 266 262 263 263 265 261 263 276 274 270 264 270 278 284 290 288 286 284 278 278 277 277
232 231 235 236 268 257 257 266 262 263 258 264 263 263 261 261 266 268 267 263 261 265 268 276 274 277 271 278 284 296 296 295 293 289 286 285 284 280
237 232 241 258 259 266 244 259 258 254 252 261 265 263 268 269 269 270 272 268 265 265 266 270 271 268 267 269 277 280 290 289 290 284 293 298 299 299
236 244 262 268 269 251 253 243 246 245 251 260 269 275 279 271 269 265 272 277 267 268 269 266 266 265 269 276 280 285 291 287 285 297 291 302 301 301
249 273 283 275 253 239 246 252 252 252 258 255 256 268 265 262 265 264 260 264 263 260 257 272 272 272 278 281 283 288 290 299 303 305 313 310 313 314
258 279 282 267 254 231 238 249 255 260 239 233 273 246 243 252 261 264 260 255 246 248 241 273 285 297 299 290 276 282 288 290 298 303 308 304 306 306
264 269 259 248 221 220 231 236 232 241 230 221 204 227 271 265 252 243 238 227 227 236 263 274 286 293 292 289 299 291 296 299 303 306 301 303 300 301
236 230 223 198 206 239 214 221 219 209 200 202 224 264 216 211 217 224 224 222 231 244 268 284 292 299 309 296 288 293 293 292 298 302 304 297 299 303
228 214 209 210 230 207 215 204 197 192 195 201 216 213 219 213 231 227 246 250 263 277 284 293 287 295 297 297 296 291 279 291 293 296 301 304 301 300
190 193 201 206 199 206 200 194 196 193 199 203 209 225 233 237 236 248 259 271 283 284 288 295 296 298 303 299 294 295 297 294 306 308 306 296 298 297
200 197 188 192 191 183 187 191 195 200 195 209 220 228 229 243 259 267 279 286 286 293 295 300 304 303 299 298 295 300 302 310 306 310 303 297 302 295
Wind_Speed_850mb
43 42 42 39 39 36 33 32 28 34 27 33 22 12 19 28 29 27 33 38 42 56 56 54 51 57 60 62 59 58 56 54 55 56 57 55 54 53
36 37 39 38 37 33 32 29 27 30 36 32 29 21 14 10 20 22 26 34 37 41 50 58 65 63 58 56 59 62 60 58 59 57 56 59 61 61
33 33 34 31 32 31 29 27 27 27 32 33 20 11 7 15 14 15 14 21 29 36 41 45 53 58 58 61 60 60 64 62 60 60 60 57 56 61
28 32 33 32 33 30 29 25 25 23 26 25 21 16 12 12 18 12 21 20 24 32 38 41 48 50 53 57 63 68 73 73 71 68 66 63 62 63
48 43 38 38 33 30 25 20 21 21 22 23 21 21 16 15 13 12 11 13 19 19 29 31 35 40 44 48 54 62 66 71 75 76 75 73 71 70
44 44 42 42 34 29 27 22 22 25 23 24 22 21 18 16 17 16 13 20 22 23 23 28 34 38 44 45 44 48 54 56 58 64 70 77 80 79
43 43 42 39 31 29 30 23 26 30 29 26 23 18 18 16 18 17 19 21 23 23 23 24 26 29 32 37 41 42 47 51 53 57 61 63 63 70
51 44 39 34 32 32 31 27 31 35 32 29 27 25 22 22 21 19 17 16 15 17 15 15 26 26 26 30 32 34 36 39 47 52 58 66 65 67
39 37 33 32 28 32 29 32 34 32 33 29 31 27 22 21 22 26 25 21 20 23 26 25 23 21 22 24 25 23 26 31 34 38 41 44 55 62
34 33 34 30 29 27 28 30 31 31 32 32 31 28 28 25 30 28 28 30 26 25 28 29 20 22 22 25 25 27 28 29 28 29 32 34 37 42
34 34 37 35 32 29 31 31 28 29 28 29 28 27 27 26 27 29 29 30 27 22 27 27 22 24 23 26 25 26 22 18 25 25 26 26 28 32
37 33 29 28 31 36 36 34 36 32 29 33 33 32 31 33 34 35 33 33 33 32 26 24 19 25 17 20 10 20 28 35 32 32 31 32 34 35
44 35 33 30 26 38 47 50 48 40 37 32 34 34 34 34 37 37 38 39 38 34 34 36 27 27 24 27 24 25 28 28 29 30 37 38 40 42
58 51 44 34 35 42 46 55 51 47 45 44 36 36 33 30 35 39 39 39 40 43 44 42 42 34 33 33 29 25 23 24 23 25 25 28 33 39
59 47 57 65 64 80 63 55 52 44 40 37 35 33 30 31 34 34 35 35 35 36 37 38 37 34 37 34 34 27 30 23 27 20 21 23 24 28
56 61 73 64 44 36 35 32 35 31 26 28 30 35 37 34 29 26 30 37 33 29 31 30 28 28 30 34 35 30 27 30 26 22 32 27 27 27
55 52 60 60 42 50 51 39 33 24 25 26 22 18 28 28 27 28 28 28 24 20 15 20 25 24 26 26 26 24 24 14 16 22 27 22 19 19
62 58 59 56 56 48 47 42 49 41 33 27 17 20 20 18 17 18 19 15 8 6 5 11 12 8 9 15 14 11 12 16 18 22 24 25 24 22
68 59 36 28 37 43 41 42 38 31 27 24 24 16 23 22 17 12 10 7 8 8 10 14 14 17 12 16 13 18 15 19 22 23 26 30 34 33
33 31 28 26 36 33 34 35 33 29 28 22 14 17 12 10 7 6 6 6 6 7 7 13 14 16 13 16 20 22 35 29 32 34 34 35 43 43
33 34 31 35 36 33 34 36 34 32 24 17 12 12 9 8 10 8 11 12 11 13 11 12 25 28 29 30 25 25 28 43 42 44 41 35 34 34
36 37 34 34 36 34 37 33 29 26 18 18 18 17 15 15 14 13 14 12 18 22 26 28 32 30 24 21 25 27 28 27 33 36 33 33 25 28
42 32 33 33 38 39 33 30 26 23 24 22 22 22 18 16 17 19 20 21 22 20 23 20 21 24 23 22 29 26 28 28 27 26 23 35 41 37
Wind_Direction_850mb
280 283 285 292 294 295 285 284 278 279 297 315 322 282 259 238 231 238 239 239 231 231 231 232 235 239 245 248 239 242 245 246 252 257 259 258 258 257
282 286 282 283 290 292 290 284 278 280 282 296 313 289 260 237 232 238 243 234 233 233 233 237 240 242 246 238 243 243 244 249 251 252 257 256 257 259
284 288 290 277 286 293 292 285 281 283 284 295 299 302 305 238 244 257 245 245 236 236 238 239 238 239 241 241 243 244 241 249 253 251 253 256 259 259
284 283 289 272 271 280 286 285 289 279 282 284 292 278 265 263 266 265 263 261 248 241 247 248 238 239 241 243 245 245 247 250 253 252 251 253 258 260
276 279 278 265 267 273 268 271 284 278 283 278 272 281 278 258 264 267 259 275 270 262 250 249 242 242 243 246 248 246 246 248 250 251 251 255 258 258
265 261 265 261 261 264 256 255 266 260 272 272 272 271 258 259 267 288 297 300 289 276 267 263 258 256 253 251 254 254 251 252 250 249 251 253 254 256
260 255 260 262 262 261 260 264 256 259 263 259 253 251 239 250 256 262 272 286 301 292 278 273 268 260 258 257 259 258 256 255 255 257 258 259 261 260
258 263 264 259 256 259 261 266 264 268 262 253 249 243 239 244 256 263 268 280 294 301 277 276 286 280 274 270 274 270 267 265 261 262 262 258 258 257
263 263 254 262 266 266 266 271 265 265 259 262 257 250 247 248 249 261 269 275 273 279 291 290 290 292 281 276 279 275 270 267 268 267 269 267 260 259
259 254 249 255 268 265 266 271 269 267 261 260 267 261 258 253 255 256 261 270 273 284 291 280 283 291 288 287 282 277 281 280 275 272 273 274 272 269
253 245 239 245 263 268 269 265 260 262 265 261 254 260 257 257 258 258 260 267 274 276 272 279 278 289 287 291 289 276 264 284 282 281 281 277 274 274
251 251 251 263 266 269 268 270 265 262 254 248 246 254 260 260 258 263 266 260 264 277 264 264 266 283 291 282 267 290 271 287 282 283 276 270 272 278
231 229 222 223 254 274 275 271 266 271 261 252 253 255 262 265 266 262 263 263 265 261 263 276 274 270 264 270 278 284 290 288 286 284 278 278 277 277
232 231 235 236 268 257 257 266 262 263 258 264 263 263 261 261 266 268 267 263 261 265 268 276 274 277 271 278 284 296 296 295 293 289 286 285 284 280
237 232 241 258 259 266 244 259 258 254 252 261 265 263 268 269 269 270 272 268 265 265 266 270 271 268 267 269 277 280 290 289 290 284 293 298 299 299
236 244 262 268 269 251 253 243 246 245 251 260 269 275 279 271 269 265 272 277 267 268 269 266 266 265 269 276 280 285 291 287 285 297 291 302 301 301
249 273 283 275 253 239 246 252 252 252 258 255 256 268 265 262 265 264 260 264 263 260 257 272 272 272 278 281 283 288 290 299 303 305 313 310 313 314
258 279 282 267 254 231 238 249 255 260 239 233 273 246 243 252 261 264 260 255 246 248 241 273 285 297 299 290 276 282 288 290 298 303 308 304 306 306
264 269 259 248 221 220 231 236 232 241 230 221 204 227 271 265 252 243 238 227 227 236 263 274 286 293 292 289 299 291 296 299 303 306 301 303 300 301
236 230 223 198 206 239 214 221 219 209 200 202 224 264 216 211 217 224 224 222 231 244 268 284 292 299 309 296 288 293 293 292 298 302 304 297 299 303
228 214 209 210 230 207 215 204 197 192 195 201 216 213 219 213 231 227 246 250 263 277 284 293 287 295 297 297 296 291 279 291 293 296 301 304 301 300
190 193 201 206 199 206 200 194 196 193 199 203 209 225 233 237 236 248 259 271 283 284 288 295 296 298 303 299 294 295 297 294 306 308 306 296 298 297
200 197 188 192 191 183 187 191 195 200 195 209 220 228 229 243 259 267 279 286 286 293 295 300 304 303 299 298 295 300 302 310 306 310 303 297 302 295